KJ7AZ-3 Weather Reports


Display with metric or nautical units.
time (UTC)temp
F
wind
direction
speed
MPH
gust
MPH
rain 1hr
in
rain 24hr
in
rain mn
in
humidity
%
barometer
mb
20260904233414 81 149 1.0 0.0 0.00 0.00 0.00
20260904231914 84 91 1.0 0.0 0.00 0.00 0.00
20260904230413 84 110 2.0 1.0 0.00 0.00 0.00
20260904224914 83 82 5.0 4.0 0.00 0.00 0.00
20260904220412 85 97 8.0 4.0 0.00 0.00 0.00
20260904214911 88 58 8.0 5.0 0.00 0.00 0.00
20260904211909 87 87 11.0 7.0 0.00 0.00 0.00
20260904210409 92 8 8.0 12.0 0.00 0.00 0.00
20260904204909 89 322 5.0 5.0 0.00 0.00 0.00
20260904203408 89 263 1.0 0.0 0.00 0.00 0.00
20260904201907 90 6 0.0 3.0 0.00 0.00 0.00
20260904200407 89 301 0.0 0.0 0.00 0.00 0.00
20260904194906 89 41 0.0 4.0 0.00 0.00 0.00
20260904193406 89 307 1.0 5.0 0.00 0.00 0.00
20260904191906 87 354 3.0 0.0 0.00 0.00 0.00
20260904190406 83 330 2.0 1.0 0.00 0.00 0.00
20260904184905 87 194 1.0 0.0 0.00 0.00 0.00
20260904181905 85 274 2.0 0.0 0.00 0.00 0.00
20260904180405 84 293 3.0 2.0 0.00 0.00 0.00
20260904174905 83 333 2.0 3.0 0.00 0.00 0.00
20260904173405 83 221 4.0 1.0 0.00 0.00 0.00
20260904171905 82 311 5.0 10.0 0.00 0.00 0.00
20260904170405 81 311 3.0 5.0 0.00 0.00 0.00
20260904164905 81 283 3.0 5.0 0.00 0.00 0.00
20260904163405 80 345 4.0 1.0 0.00 0.00 0.00
20260904161904 77 253 3.0 1.0 0.00 0.00 0.00
20260904153405 73 27 2.0 2.0 0.00 0.00 0.00
20260904144905 71 359 5.0 1.0 0.00 0.00 0.00
20260904143404 71 304 3.0 5.0 0.00 0.00 0.00
20260904140404 71 13 3.0 3.0 0.00 0.00 0.00
20260904133405 67 27 0.0 0.0 0.00 0.00 0.00
20260904131905 66 325 0.0 0.0 0.00 0.00 0.00
20260904124905 65 333 1.0 0.0 0.00 0.00 0.00
20260904123405 66 350 2.0 1.0 0.00 0.00 0.00
20260904120405 66 319 0.0 1.0 0.00 0.00 0.00
20260904114906 67 307 2.0 3.0 0.00 0.00 0.00
20260904113406 67 4 2.0 3.0 0.00 0.00 0.00
20260904111906 67 322 2.0 6.0 0.00 0.00 0.00
20260904110406 68 359 1.0 3.0 0.00 0.00 0.00
20260904104906 69 318 4.0 1.0 0.00 0.00 0.00
20260904103406 69 350 3.0 3.0 0.00 0.00 0.00
20260904101906 68 315 4.0 3.0 0.00 0.00 0.00
20260904100407 69 1 1.0 0.0 0.00 0.00 0.00
20260904094907 68 308 2.0 0.0 0.00 0.00 0.00
20260904093407 68 305 0.0 0.0 0.00 0.00 0.00
20260904091907 68 305 1.0 1.0 0.00 0.00 0.00
20260904090408 67 215 0.0 0.0 0.00 0.00 0.00
20260904084908 66 215 0.0 0.0 0.00 0.00 0.00
20260904083408 66 215 0.0 0.0 0.00 0.00 0.00
20260904081908 67 215 0.0 0.0 0.00 0.00 0.00
20260904080411 68 215 0.0 0.0 0.00 0.00 0.00
20260904074909 69 215 0.0 0.0 0.00 0.00 0.00
20260904073409 69 215 0.0 0.0 0.00 0.00 0.00
20260904071909 69 215 0.0 0.0 0.00 0.00 0.00
20260904070409 69 215 0.0 0.0 0.00 0.00 0.00
20260904064909 70 215 0.0 0.0 0.00 0.00 0.00
20260904063409 70 215 0.0 0.0 0.00 0.00 0.00
20260904061909 71 215 0.0 0.0 0.00 0.00 0.00
20260904060409 73 215 0.0 0.0 0.00 0.00 0.00
20260904054909 73 215 0.0 0.0 0.00 0.00 0.00
20260904053411 73 215 1.0 0.0 0.00 0.00 0.00
20260904051910 72 174 0.0 0.0 0.00 0.00 0.00
20260904050409 73 174 0.0 0.0 0.00 0.00 0.00
20260904044909 74 174 0.0 0.0 0.00 0.00 0.00
20260904043409 74 149 0.0 1.0 0.00 0.00 0.00
20260904041909 74 158 0.0 0.0 0.00 0.00 0.00
20260904040409 74 177 0.0 0.0 0.00 0.00 0.00
20260904033408 75 301 0.0 0.0 0.00 0.00 0.00
20260904031909 75 221 0.0 0.0 0.00 0.00 0.00
20260904030408 76 218 1.0 0.0 0.00 0.00 0.00
20260904024908 76 263 4.0 4.0 0.00 0.00 0.00
20260904023408 77 336 0.0 0.0 0.00 0.00 0.00
20260904021907 78 336 0.0 0.0 0.00 0.00 0.00
20260904020407 77 336 0.0 0.0 0.00 0.00 0.00
20260904014906 78 336 0.0 0.0 0.00 0.00 0.00
20260904013406 80 336 0.0 0.0 0.00 0.00 0.00
20260904011906 80 336 0.0 0.0 0.00 0.00 0.00
20260904010405 81 27 0.0 0.0 0.00 0.00 0.00
20260904004905 83 342 2.0 2.0 0.00 0.00 0.00
20260904003405 84 3 1.0 4.0 0.00 0.00 0.00
20260904001905 86 10 2.0 2.0 0.00 0.00 0.00
20260904000405 82 316 4.0 4.0 0.00 0.00 0.00
20260903234904 83 359 5.0 4.0 0.00 0.00 0.00